Las Cruces, NM

12:18 PM MDT on May 24, 2017 (GMT -0600)
Las Cruces International

Weather History for KLRU - March, 2012

Change the Weather History Date:

Friday, March 2, 2012

  Actual Average Record
Temperature  
Mean Temperature 48 °F -  
Max Temperature 62 °F 58 °F 82 °F (2016)
Min Temperature 35 °F 35 °F 23 °F (2007)
Degree Days  
Heating Degree Days 16    
Moisture  
Dew Point 13 °F    
Average Humidity 23    
Maximum Humidity 36    
Minimum Humidity 10    
Precipitation  
Precipitation 0.00 in - - ()
Sea Level Pressure  
Sea Level Pressure 29.89 in    
Wind  
Wind Speed 14 mph (West)    
Max Wind Speed 40 mph    
Max Gust Speed 52 mph    
Visibility 10 miles    
Events      
Averages and records for this station are not official NWS values.
T = Trace of Precipitation, MM = Missing Value Source: NWS Daily Summary

Daily Weather History Graph

Daily Weather History Graph

Search for Another Location

Airport or City:

Trip Planner

Search our weather history database for the weather conditions in past years. The results will help you decide how hot, cold, wet, or windy it might be!

Date:

Astronomy

Mar. 02, 2012 Rise Set
Actual Time 6:33 AM MST 6:06 PM MST
Civil Twilight 6:08 AM MST 6:31 PM MST
Nautical Twilight 5:40 AM MST 6:59 PM MST
Astronomical Twilight 5:11 AM MST 7:27 PM MST
Moon 12:36 PM MST (3/2) 2:10 AM MST (3/2)
Length of Visible Light 12h 22m
Length of Day
11h 33m
Waxing Gibbous, 67% of the Moon is Illuminated
Mar 2
Waxing Gibbous
Mar 8
Full
Mar 14
Last Quarter
Mar 22
New
Mar 30
First Quarter

Hourly Weather History & Observations

Time (MST) Temp. Windchill Dew Point Humidity Pressure Visibility Wind Dir Wind Speed Gust Speed Precip Events Conditions
12:15 AM 44.6 °F 40.2 °F 5.0 °F 20% 29.87 in 10.0 mi WNW 8.1 mph - N/A   Clear
12:35 AM 46.4 °F 42.9 °F 5.0 °F 18% 29.87 in 10.0 mi WNW 6.9 mph - N/A   Clear
12:55 AM 44.6 °F 41.4 °F 5.0 °F 20% 29.87 in 10.0 mi WNW 5.8 mph - N/A   Clear
1:15 AM 44.6 °F 41.4 °F 6.8 °F 21% 29.87 in 10.0 mi WNW 5.8 mph - N/A   Clear
1:35 AM 44.6 °F 41.4 °F 6.8 °F 21% 29.87 in 10.0 mi West 5.8 mph - N/A   Clear
1:55 AM 44.6 °F 41.4 °F 6.8 °F 21% 29.87 in 10.0 mi WSW 5.8 mph - N/A   Clear
2:15 AM 44.6 °F 40.7 °F 8.6 °F 23% 29.86 in 10.0 mi West 6.9 mph - N/A   Clear
2:35 AM 42.8 °F 38.0 °F 8.6 °F 25% 29.86 in 10.0 mi West 8.1 mph - N/A   Clear
2:55 AM 42.8 °F 38.6 °F 8.6 °F 25% 29.86 in 10.0 mi WNW 6.9 mph - N/A   Clear
3:15 AM 42.8 °F 39.3 °F 8.6 °F 25% 29.86 in 10.0 mi NW 5.8 mph - N/A   Clear
3:35 AM 41.0 °F 37.1 °F 8.6 °F 26% 29.87 in 10.0 mi WNW 5.8 mph - N/A   Clear
3:55 AM 39.2 °F - 8.6 °F 28% 29.88 in 10.0 mi Calm Calm - N/A   Clear
4:15 AM 37.4 °F 34.9 °F 8.6 °F 30% 29.88 in 10.0 mi ESE 3.5 mph - N/A   Clear
4:35 AM 41.0 °F - 8.6 °F 26% 29.88 in 10.0 mi Calm Calm - N/A   Clear
4:55 AM 39.2 °F - 8.6 °F 28% 29.88 in 10.0 mi Calm Calm - N/A   Clear
5:15 AM 37.4 °F - 8.6 °F 30% 29.88 in 10.0 mi Calm Calm - N/A   Clear
5:35 AM 42.8 °F 39.3 °F 10.4 °F 27% 29.88 in 10.0 mi SW 5.8 mph - N/A   Clear
5:55 AM 41.0 °F 34.7 °F 10.4 °F 29% 29.89 in 10.0 mi SW 10.4 mph - N/A   Clear
6:15 AM 37.4 °F 32.1 °F 12.2 °F 36% 29.89 in 10.0 mi SW 6.9 mph - N/A   Clear
6:35 AM 35.6 °F 30.7 °F 10.4 °F 35% 29.90 in 10.0 mi WSW 5.8 mph - N/A   Clear
6:55 AM 37.4 °F 30.8 °F 12.2 °F 36% 29.90 in 10.0 mi West 9.2 mph - N/A   Clear
7:15 AM 42.8 °F 37.5 °F 14.0 °F 31% 29.90 in 10.0 mi West 9.2 mph - N/A   Clear
7:35 AM 44.6 °F 38.4 °F 14.0 °F 29% 29.90 in 10.0 mi WSW 12.7 mph - N/A   Clear
7:55 AM 46.4 °F 40.1 °F 15.8 °F 29% 29.91 in 10.0 mi West 15.0 mph - N/A   Clear
8:15 AM 50.0 °F - 17.6 °F 28% 29.91 in 10.0 mi West 13.8 mph 18.4 mph N/A   Clear
8:35 AM 50.0 °F - 17.6 °F 28% 29.91 in 10.0 mi West 21.9 mph 25.3 mph N/A   Clear
8:55 AM 51.8 °F - 17.6 °F 26% 29.91 in 10.0 mi West 21.9 mph 32.2 mph N/A   Clear
9:15 AM 53.6 °F - 17.6 °F 24% 29.90 in 10.0 mi West 20.7 mph 38.0 mph N/A   Clear
9:35 AM 53.6 °F - 17.6 °F 24% 29.90 in 10.0 mi West 29.9 mph 38.0 mph N/A   Clear
9:55 AM 55.4 °F - 17.6 °F 23% 29.90 in 10.0 mi West 34.5 mph 40.3 mph N/A   Clear
10:15 AM 55.4 °F - 19.4 °F 25% 29.89 in 10.0 mi West 31.1 mph 42.6 mph N/A   Clear
10:35 AM 57.2 °F - 17.6 °F 21% 29.90 in 10.0 mi West 36.8 mph 48.3 mph N/A   Clear
10:55 AM 59.0 °F - 17.6 °F 20% 29.90 in 10.0 mi West 39.1 mph 47.2 mph N/A   Clear
11:15 AM 59.0 °F - 17.6 °F 20% 29.90 in 10.0 mi West 35.7 mph 43.7 mph N/A   Clear
11:35 AM 59.0 °F - 17.6 °F 20% 29.90 in 10.0 mi West 31.1 mph 42.6 mph N/A   Clear
11:55 AM 60.8 °F - 17.6 °F 19% 29.90 in 10.0 mi West 29.9 mph 40.3 mph N/A   Clear
12:15 PM 60.8 °F - 19.4 °F 20% 29.90 in 10.0 mi West 32.2 mph 40.3 mph N/A   Scattered Clouds
12:35 PM 60.8 °F - 19.4 °F 20% 29.89 in 10.0 mi West 38.0 mph 44.9 mph N/A   Clear
12:55 PM 60.8 °F - 19.4 °F 20% 29.88 in 7.0 mi West 32.2 mph 41.4 mph N/A   Scattered Clouds
1:15 PM 60.8 °F - 17.6 °F 19% 29.86 in 5.0 mi West 40.3 mph 51.8 mph N/A   Haze
1:35 PM 60.8 °F - 19.4 °F 20% 29.86 in 5.0 mi West 28.8 mph 46.0 mph N/A   Haze
1:55 PM 62.6 °F - 17.6 °F 18% 29.86 in 4.0 mi West 36.8 mph 48.3 mph N/A   Haze
2:15 PM 62.6 °F - 15.8 °F 16% 29.86 in 5.0 mi West 35.7 mph 48.3 mph N/A   Haze
2:55 PM 62.6 °F - 12.2 °F 14% 29.86 in 7.0 mi West 29.9 mph 42.6 mph N/A   Scattered Clouds
3:15 PM 62.6 °F - 14.0 °F 15% 29.87 in 10.0 mi West 28.8 mph 43.7 mph N/A   Clear
3:35 PM 60.8 °F - 14.0 °F 16% 29.87 in 10.0 mi West 34.5 mph 39.1 mph N/A   Clear
3:55 PM 60.8 °F - 14.0 °F 16% 29.88 in 10.0 mi West 33.4 mph 42.6 mph N/A   Clear
4:15 PM 60.8 °F - 12.2 °F 15% 29.89 in 10.0 mi West 31.1 mph 39.1 mph N/A   Clear
4:35 PM 60.8 °F - 10.4 °F 14% 29.91 in 10.0 mi WNW 18.4 mph 40.3 mph N/A   Clear
4:55 PM 59.0 °F - 3.2 °F 11% 29.93 in 10.0 mi North 10.4 mph 18.4 mph N/A   Clear
5:15 PM 55.4 °F - -0.4 °F 10% 29.94 in 10.0 mi North 20.7 mph 24.2 mph N/A   Clear
5:35 PM 53.6 °F - -4.0 °F 9% 29.96 in 10.0 mi North 15.0 mph 21.9 mph N/A   Clear
5:55 PM 51.8 °F - -4.0 °F 10% 29.97 in 10.0 mi North 12.7 mph 25.3 mph N/A   Clear
6:15 PM 50.0 °F - -4.0 °F 11% 29.99 in 10.0 mi North 11.5 mph 19.6 mph N/A   Clear
6:35 PM 48.2 °F - -4.0 °F 11% 30.01 in 10.0 mi North 16.1 mph 20.7 mph N/A   Clear
6:55 PM 46.4 °F 39.8 °F -4.0 °F 12% 30.02 in 10.0 mi NNE 16.1 mph 20.7 mph N/A   Clear
7:15 PM 46.4 °F 40.1 °F -0.4 °F 14% 30.03 in 10.0 mi North 15.0 mph - N/A   Clear
7:35 PM 44.6 °F 37.4 °F -0.4 °F 15% 30.04 in 10.0 mi North 16.1 mph 21.9 mph N/A   Clear
7:55 PM 44.6 °F 36.9 °F -0.4 °F 15% 30.05 in 10.0 mi North 18.4 mph 24.2 mph N/A   Clear
8:15 PM 44.6 °F 36.9 °F -0.4 °F 15% 30.05 in 10.0 mi North 18.4 mph 27.6 mph N/A   Clear
8:35 PM 44.6 °F 35.7 °F 1.4 °F 17% 30.06 in 10.0 mi North 24.2 mph 31.1 mph N/A   Clear
8:55 PM 44.6 °F 36.1 °F 1.4 °F 17% 30.08 in 10.0 mi North 21.9 mph 27.6 mph N/A   Clear
9:15 PM 42.8 °F 33.3 °F -0.4 °F 16% 30.08 in 10.0 mi North 24.2 mph 32.2 mph N/A   Clear
9:35 PM 42.8 °F 35.1 °F -0.4 °F 16% 30.10 in 10.0 mi North 16.1 mph 23.0 mph N/A   Clear
9:55 PM 42.8 °F 35.8 °F -0.4 °F 16% 30.12 in 10.0 mi North 13.8 mph 21.9 mph N/A   Clear
10:15 PM 42.8 °F 34.5 °F -2.2 °F 15% 30.12 in 10.0 mi North 18.4 mph 25.3 mph N/A   Clear
10:35 PM 42.8 °F 34.3 °F -0.4 °F 16% 30.13 in 10.0 mi North 19.6 mph 26.5 mph N/A   Clear
10:55 PM 41.0 °F 33.5 °F -0.4 °F 18% 30.15 in 10.0 mi North 13.8 mph - N/A   Clear
11:15 PM 41.0 °F 32.8 °F -0.4 °F 18% 30.16 in 10.0 mi North 16.1 mph 24.2 mph N/A   Clear
11:35 PM 39.2 °F 31.2 °F -0.4 °F 19% 30.16 in 10.0 mi North 13.8 mph - N/A   Clear
11:55 PM 37.4 °F 32.1 °F -0.4 °F 20% 30.18 in 10.0 mi North 6.9 mph - N/A   Clear